TimeCDT,TemperatureF,Dew PointF,Humidity,Sea Level PressureIn,VisibilityMPH,Wind Direction,Wind SpeedMPH,Gust SpeedMPH,PrecipitationIn,Events,Conditions,WindDirDegrees,DateUTC
12:56 AM,-73.8,-9999,N/A,30.01,10.0,Calm,Calm,-,N/A,,Mostly Cloudy,0,2013-09-02 05:56:00
1:56 AM,-73.8,-9999,N/A,30.01,10.0,Calm,Calm,-,N/A,,Mostly Cloudy,0,2013-09-02 06:56:00
2:56 AM,-73.8,-9999,N/A,30.00,10.0,Calm,Calm,-,N/A,,Clear,0,2013-09-02 07:56:00
3:56 AM,-9999,-9999,N/A,29.90,5.0,Calm,Calm,-,N/A,,Haze,0,2013-09-02 08:56:00
4:56 AM,-9999,-9999,N/A,29.91,7.0,Calm,Calm,-,N/A,,Clear,0,2013-09-02 09:56:00
5:56 AM,-9999,-9999,N/A,29.92,5.0,Calm,Calm,-,N/A,,Haze,0,2013-09-02 10:56:00
6:56 AM,-9999,-9999,N/A,29.93,5.0,Calm,Calm,-,N/A,,Haze,0,2013-09-02 11:56:00
7:56 AM,-73.8,-9999,N/A,30.09,10.0,SW,5.8,-,N/A,,Scattered Clouds,220,2013-09-02 12:56:00
8:48 AM,-74.2,-9999,N/A,29.97,10.0,SSW,4.6,-,N/A,,Mostly Cloudy,210,2013-09-02 13:48:00
8:56 AM,-73.8,-9999,N/A,29.97,10.0,SW,5.8,-,N/A,,Mostly Cloudy,220,2013-09-02 13:56:00
9:10 AM,-74.2,-9999,N/A,29.97,10.0,SW,5.8,-,N/A,,Mostly Cloudy,220,2013-09-02 14:10:00
9:36 AM,-9999,-9999,N/A,29.97,10.0,West,8.1,-,N/A,,Mostly Cloudy,260,2013-09-02 14:36:00
9:49 AM,-9999,-9999,N/A,29.97,10.0,WSW,3.5,-,N/A,,Mostly Cloudy,240,2013-09-02 14:49:00
9:56 AM,-9999,-9999,N/A,29.97,10.0,Calm,Calm,-,N/A,,Mostly Cloudy,0,2013-09-02 14:56:00
10:43 AM,-74.2,-9999,N/A,29.98,6.0,West,4.6,-,N/A,,Haze,270,2013-09-02 15:43:00
10:56 AM,-73.8,-9999,N/A,29.97,7.0,Calm,Calm,-,N/A,,Scattered Clouds,0,2013-09-02 15:56:00
11:13 AM,-74.2,-9999,N/A,29.97,7.0,WSW,3.5,-,N/A,,Mostly Cloudy,240,2013-09-02 16:13:00
11:56 AM,-73.8,-9999,N/A,29.96,8.0,Variable,3.5,-,N/A,,Mostly Cloudy,0,2013-09-02 16:56:00
12:06 PM,-74.2,-9999,N/A,29.96,9.0,Variable,5.8,-,N/A,,Mostly Cloudy,0,2013-09-02 17:06:00
12:56 PM,-9999,-9999,N/A,29.95,10.0,West,8.1,-,N/A,,Scattered Clouds,280,2013-09-02 17:56:00
1:56 PM,-9999,-9999,N/A,29.92,10.0,WSW,8.1,-,N/A,,Partly Cloudy,250,2013-09-02 18:56:00
2:56 PM,-9999,-9999,N/A,29.91,10.0,WSW,8.1,-,N/A,,Scattered Clouds,250,2013-09-02 19:56:00
3:56 PM,-9999,-9999,N/A,29.88,10.0,SW,8.1,-,N/A,,Clear,220,2013-09-02 20:56:00
4:56 PM,-9999,-9999,N/A,29.88,10.0,WSW,5.8,-,N/A,,Clear,250,2013-09-02 21:56:00
5:56 PM,-9999,-9999,N/A,29.87,10.0,WSW,3.5,-,N/A,,Clear,240,2013-09-02 22:56:00
6:56 PM,-9999,-9999,N/A,29.90,10.0,West,5.8,-,N/A,,Clear,260,2013-09-02 23:56:00
7:05 PM,-9999,-9999,N/A,29.90,10.0,Calm,Calm,-,N/A,Thunderstorm,Clear,0,2013-09-03 00:05:00
7:20 PM,-74.2,-9999,N/A,29.90,10.0,West,5.8,-,N/A,,Clear,260,2013-09-03 00:20:00
7:56 PM,-73.8,-9999,N/A,30.03,10.0,Calm,Calm,-,N/A,,Clear,0,2013-09-03 00:56:00
8:22 PM,-74.2,-9999,N/A,29.91,10.0,Calm,Calm,-,N/A,Thunderstorm,Partly Cloudy,0,2013-09-03 01:22:00
8:34 PM,-74.2,-9999,N/A,29.91,10.0,Calm,Calm,-,N/A,Thunderstorm,Partly Cloudy,0,2013-09-03 01:34:00
8:56 PM,-73.8,-9999,N/A,30.06,7.0,NW,5.8,-,N/A,Thunderstorm,Scattered Clouds,310,2013-09-03 01:56:00
9:17 PM,-74.2,-9999,N/A,29.92,3.0,Calm,Calm,-,0.01,Thunderstorm,Mostly Cloudy,0,2013-09-03 02:17:00
9:32 PM,-9999,-9999,N/A,29.92,3.0,WSW,6.9,-,0.04,Rain-Thunderstorm,Light Thunderstorms and Rain,240,2013-09-03 02:32:00
9:39 PM,-9999,-9999,N/A,29.91,5.0,SSW,4.6,-,0.05,Rain-Thunderstorm,Light Thunderstorms and Rain,210,2013-09-03 02:39:00
9:56 PM,-9999,-9999,N/A,29.91,7.0,SW,6.9,-,0.05,Rain-Thunderstorm,Light Thunderstorms and Rain,230,2013-09-03 02:56:00
10:12 PM,-9999,-9999,N/A,29.92,10.0,Calm,Calm,-,0.00,Thunderstorm,Clear,0,2013-09-03 03:12:00
10:33 PM,-9999,-9999,N/A,29.93,9.0,Calm,Calm,-,0.00,,Clear,0,2013-09-03 03:33:00
10:56 PM,-9999,-9999,N/A,29.93,10.0,Calm,Calm,-,0.00,Rain,Light Rain,0,2013-09-03 03:56:00
11:56 PM,-9999,-9999,N/A,29.92,6.0,Calm,Calm,-,0.00,,Haze,0,2013-09-03 04:56:00